Regional Weather Roundup
Issued by NWS

Home | Current Version | Previous Version | Text Only | Print | Product List | Glossary On
Versions: 1 2 3 4 5 6 7 8 9 10 11 12 13 14 15 16 17 18 19 20 21 22 23 24 25 26 27 28 29 30 31 32 33 34 35 36 37 38 39 40 41 42 43 44 45 46 47 48 49 50
000
ASUS43 KBIS 280302
RWRND

NORTH DAKOTA REGIONAL WEATHER ROUNDUP
NATIONAL WEATHER SERVICE BISMARCK ND
1000 PM CDT FRI MAY 27 2016

NOTE: "FAIR" INDICATES FEW OR NO CLOUDS BELOW 12,000 FEET WITH NO
SIGNIFICANT WEATHER AND/OR OBSTRUCTIONS TO VISIBILITY.


NDZ001>003-009>011-017-280400-
NORTHWEST NORTH DAKOTA

CITY           SKY/WX    TMP DP  RH WIND       PRES   REMARKS
WILLISTON      CLOUDY    59  51  75 N6        29.84S
MINOT          MOCLDY    60  55  83 N8        29.84R
MINOT AFB      CLOUDY    59  55  86 NE12      29.84R
$$

NDZ018>021-031>035-040>046-280400-
SOUTHWEST NORTH DAKOTA

CITY           SKY/WX    TMP DP  RH WIND       PRES   REMARKS
BISMARCK       CLOUDY    62  52  69 NE6       29.81R
DICKINSON      CLEAR     54  43  66 NE6       29.82R
GARRISON         N/A     61  52  72 CALM      29.82R
HETTINGER ARPT CLEAR     53  45  74 CALM      29.84R
$$

NDZ004>008-012>016-024-026-027-054-280400-
NORTHEAST NORTH DAKOTA

CITY           SKY/WX    TMP DP  RH WIND       PRES   REMARKS
GRAND FORKS    CLOUDY    67  59  75 E9        29.77R
GRND FRKS AFB  CLOUDY    67  57  70 E7        29.78S
DEVILS LAKE    PTCLDY    61  57  87 N10       29.83R
$$

NDZ022-023-025-028>030-036>039-047>053-280400-
SOUTHEAST NORTH DAKOTA

CITY           SKY/WX    TMP DP  RH WIND       PRES   REMARKS
FARGO          CLOUDY    63  59  87 NE8       29.78R
JAMESTOWN      PTCLDY    62  57  83 S3        29.78R
$$





USA.gov is the U.S. government's official web portal to all federal, state and local government web resources and services.